Погода в Кыре

Погода в Кыре : погода сейчас, прогноз погоды и архив. Всё, что Вы хотите узнать о погоде в Кыре!

Хотите узнать прогноз погоды в Кыре? Тогда Вам сюда: Погода в Кыре

Поиск расширенной информации на нашем сайте:

Другие новости

Новости СМИ2

Главная страница сайта

Новости сайта

03.07.2017

Напоминаем, что на нашем специализированном сайте Метеоцентр.Азия вы можете получить высокодетализированные автоматические прогнозы погоды по пунктам России, СНГ и мира в авиационном формате (включающие направление и скорость ветра, видимость, явления погоды, количество и форму облачности, нижнюю и верхнюю границу облачности).


Погода в Кыре - сегодня

Время (UTC), дата Ветер
(°,м/с) 
Видим.   Явления Облачность Т
(°С)
Тd
(°С)
f(%) Тe
(°С)
Pmin
(гПа)
dP
(гПа)
Po
(мм)
O2
(г/м3)
Тmin Tmax R s Состояние
почвы
00 12.12.17 250 (З) 20000 м    ясно 
-33.2 -37.2 67 -34  1047.8  0.3  692  319  -33.3      <0.5  равномерный
сухой снег
100% 
03 12.12.17 тихо ()   20000 м    ясно 
-27.5 -32.8 61 -28  1045.2  0.4  692  312           
06 12.12.17 280 (З) 20000 м    ясно 
-21 -29.4 47 -21  1040.1  -1.6  691  303           
09 12.12.17 200 (Ю) 20000 м    ясно 
-22.8 -29.3 55 -23  1041  691  305           
12 12.12.17 030 (СВ) н/о    ясно 
-28.5 -32.6 68 -29  1044.6  0.5  691  313    -19.1       
15 12.12.17 тихо ()   н/о    ясно 
-30.3 -34.4 67 -30  1046.1  0.6  692  315           
18 12.12.17 тихо ()   н/о    ясно 
-31.4 -35.4 68 -31  1046.5  -0.2  692  317           
21 12.12.17 тихо ()   н/о    ясно 
-30.2 -34.4 67 -30  1045.3  -0.5  691  315           
00 13.12.17 тихо ()   20000 м    3/0 верхняя 
[Ci fib]
-29.8 -33.9 68 -30  1044.3  -0.7  691  314  -32      <0.5  равномерный
сухой снег
100% 
03 13.12.17 тихо ()   20000 м    6/3 1000 м средняя, верхняя 
[Sc|Ac trans|Ci fib]
-24.8 -30.3 60 -25  1041.4  -0.2  690  308           
06 13.12.17 тихо ()   20000 м    8/4 1000 м средняя, верхняя 
[Sc|Ac trans|Ci fib]
-20.1 -27.9 50 -20  1037  -1.8  689  301           
09 13.12.17 010 (С) 20000 м    8/3 1000 м верхняя 
[Sc|Ci fib]
-20.2 -24.2 70 -20  1037.4  0.4  689  301           
12 13.12.17 тихо ()   н/о    1/0 средняя 
[Ac lent]
-25.9 -29.2 74 -26  1041.3  0.9  690  309    -18.7       
15 13.12.17 тихо ()   н/о    ясно 
-27.8 -31.3 72 -28  1043.3  0.9  691  312           
18 13.12.17 300 (СЗ) н/о    ясно 
-28.4 -32.3 69 -29  1042.6  -0.9  690  312           
21 13.12.17 тихо ()   н/о    ясно 
-26.2 -29.8 72 -26  1040.8  -0.6  690  309           
00 14.12.17 тихо ()   20000 м    9/4 1000 м средняя 
[Sc|Ac trans]
-24 -27.6 72 -24  1039.7  0.1  690  306  -28.5      <0.5  равномерный
сухой снег
100% 
03 14.12.17 210 (ЮЗ) 20000 м    10/4 1000 м средняя 
[Sc|As trans]
-19.6 -23.7 70 -20  1037.2  -0.2  689  301           
06 14.12.17 310 (СЗ) 20000 м    10/3 1000 м средняя, верхняя 
[Sc|Ac lent|Cs]
-11.4 -23.1 37 -16  1031.7  -1.5  688  291           
09 14.12.17 310 (СЗ) 20000 м    6/3 1000 м средняя 
[Sc|Ac trans]
-12.6 -18.8 60 -15  1032.9  0.4  689  292           
12 14.12.17 290 (З) н/о    ясно 
-16.4 -24.1 51 -17  1035.9  1.3  690  297    -11.1       
15 14.12.17 280 (З) н/о    3/0 средняя 
[Ac trans]
-15.1 -23.9 47 -19  1036  0.5  690  296           
18 14.12.17 270 (З) н/о    ясно 
-17.5 -25.6 49 -20  1037  0.1  690  299           
21 14.12.17 320 (СЗ) н/о    ясно 
-16.7 -25.6 46 -19  1035.8  -0.7  689  297           
00 15.12.17 290 (З) 20000 м    6/3 1000 м средняя 
[Sc|Ac trans]
-17.1 -28.3 37 -22  1037.1  0.9  690  298  -17.8      <0.5  равномерный
сухой снег
100% 
Время (UTC), дата Ветер
(°,м/с) 
Видим.   Явления Облачность Т
(°С)
Тd
(°С)
f(%) Тe
(°С)
Pmin
(гПа)
dP
(гПа)
Po
(мм)
O2
(г/м3)
Тmin Tmax R s Состояние
почвы

Для получения пояснительной информации подведите курсор к названию столбца.

ПОГОДА в Кыре - архив

Всё, что Вы хотите узнать о погоде в Кыре - удобно и подробно!

Выберите нужную дату (начиная с 1 января 2015* года) и нажмите кнопку "Найти".
Будут отображены архивные сводки погоды по пункту Кыра, начиная с указанной даты.


Отображать данные в формате CSV (для использования в таблицах Excel)


Внимание! Наш архив погоды предназначен исключительно для личного некоммерческого использования в познавательных целях. Если Вам необходимы официальные справки о состоянии погоды (для производственных, юридических, коммерческих и т.п. целей), обращайтесь в органы Росгидромета.

*Примечание: данная дата относится к архиву по метеостанциям СССР (Россия, СНГ, Балтия).
Архив по метеостанциям Зарубежной Европы и Азии (кроме Китая) хранится 10 дней, по другим регионам земного шара (Китай, Африка, Америка, Австралия, Океания) - 1 день.

Кыра - район местоположения метеостанции


Название, широта, долгота, высота метеостанции:
Кыра 49.6°ш. 112°д. 908 м над ур. моря [Российская Федерация]

Дополнительная информация

В oтличие oт бoльшинства пoгoдных сайтoв мы публикуем пoдрoбную метеoинфoрмацию в детальнoм прoфессиoнальнoм фoрмате.

Характеристики температуры и влажнoсти вoздуха измеряются на высoте 2 м в тени вдали oт зданий и деревьев.
Скoрoсть ветра измеряется на высoте 10 м (на урoвне рoста челoвека скoрoсть ветра ниже в 1.5-2 раза). Если метеoстанция нахoдится в гoрoде или в лесу, тo скoрoсть ветра занижена на 2-4 м/с пo сравнению с oткрытым местoм. Скoрoсть ветра над акватoриями крупных рек и oзёр, а также на вершинах хoлмoв на 2-5 м/с выше, чем в oбычных услoвиях.
Атмoсфернoе давление в разных тoчках местнoсти мoжет значительнo oтличаться oт давления на метеoстанции, в зависимoсти oт услoвий рельефа (при пoдъёме на 10 м давление пoнижается примернo на 1 мм рт.ст.).